Location: Joplin
(37.0842°N, 94.5131°W)
Time: 10:09:55
(UTC-05:00)

O/OREOS (USA 219) - Visible Passes

Search period start: 23 May 2019 00:00
Search period end: 02 June 2019 00:00
Orbit: 621 x 646 km, 72.0° (Epoch: 22 May)

Date Brightness Start Highest point End Pass type
(mag) Time Alt. Az. Time Alt. Az. Time Alt. Az.
23 May ? 03:48:12 10° NNW 03:52:49 76° ENE 03:55:40 23° SSE visible
24 May ? 02:32:08 10° NNE 02:35:09 17° ENE 02:38:09 10° E visible
24 May ? 04:10:25 10° NW 04:14:47 44° WSW 04:15:50 38° SW visible
25 May ? 02:53:14 10° N 02:57:29 36° ENE 02:58:57 29° ESE visible
25 May ? 04:33:22 10° NW 04:36:19 19° W 04:36:19 19° W visible
26 May ? 03:15:01 10° NNW 03:19:37 85° ENE 03:19:38 85° ENE visible
27 May ? 01:58:45 10° NNE 02:02:01 19° ENE 02:03:06 17° ENE visible
27 May ? 03:37:18 10° NW 03:40:29 34° WNW 03:40:29 34° WNW visible
28 May ? 02:19:58 10° N 02:24:04 40° NE 02:24:04 40° NE visible
28 May ? 04:00:26 10° WNW 04:01:28 13° WNW 04:01:28 13° WNW visible
29 May ? 02:41:50 10° NNW 02:45:08 47° NNW 02:45:08 47° NNW visible
30 May ? 01:25:24 10° N 01:28:53 21° ENE 01:28:53 21° ENE visible
30 May ? 03:04:12 10° NW 03:06:18 23° WNW 03:06:18 23° WNW visible
31 May ? 01:46:44 10° N 01:50:06 38° NNE 01:50:06 38° NNE visible
01 Jun ? 00:32:05 10° NE 00:33:16 11° NE 00:33:56 11° ENE visible
01 Jun ? 02:08:39 10° NNW 02:11:22 35° NNW 02:11:22 35° NNW visible
